Weather History for KDRI - October, 2013

Change the Weather History Date:

Tuesday, October 8, 2013

  Actual Average (KPOE) Record (KPOE)
Temperature  
Mean Temperature 64 °F -  
Max Temperature 76 °F 77 °F 91 °F (2010)
Min Temperature 51 °F 58 °F 44 °F (2000)
Degree Days  
Heating Degree Days 2    
Growing Degree Days 14 (Base 50)    
Moisture  
Dew Point 53 °F    
Average Humidity 72    
Maximum Humidity 92    
Minimum Humidity 43    
Precipitation  
Precipitation 0.00 in - - ()
Sea Level Pressure  
Sea Level Pressure 30.08 in    
Wind  
Wind Speed 1 mph (North)    
Max Wind Speed 7 mph    
Max Gust Speed -    
Visibility 10 miles    
Events      
Averages and records for this station are not official NWS values.
T = Trace of Precipitation, MM = Missing Value Source: NWS Daily Summary

Daily Weather History Graph

Daily Weather History Graph

Search for Another Location

Airport or City:

Trip Planner

Search our weather history database for the weather conditions in past years. The results will help you decide how hot, cold, wet, or windy it might be!

Date:

Astronomy

Oct. 08, 2013 Rise Set
Actual Time 7:11 AM CDT 6:49 PM CDT
Civil Twilight 6:47 AM CDT 7:13 PM CDT
Nautical Twilight 6:19 AM CDT 7:41 PM CDT
Astronomical Twilight 5:51 AM CDT 8:09 PM CDT
Moon 10:51 AM CDT (10/8) 9:41 PM CDT (10/8)
Length of Visible Light 12h 26m
Length of Day
11h 38m
Waxing Crescent, 16% of the Moon is Illuminated
Oct 8
Waxing Crescent
Oct 11
First Quarter
Oct 18
Full
Oct 26
Last Quarter
Nov 3
New

Hourly Weather History & Observations

Time (CDT) Temp. Dew Point Humidity Pressure Visibility Wind Dir Wind Speed Gust Speed Precip Events Conditions
12:15 AM 54.7 °F 51.3 °F 88% 30.09 in 10.0 mi Calm Calm - N/A   Scattered Clouds
12:35 AM 55.0 °F 51.6 °F 88% 30.09 in 10.0 mi Calm Calm - N/A   Scattered Clouds
12:55 AM 54.1 °F 51.1 °F 89% 30.09 in 10.0 mi Calm Calm - N/A   Scattered Clouds
1:15 AM 54.5 °F 51.6 °F 90% 30.09 in 10.0 mi Calm Calm - N/A   Scattered Clouds
1:35 AM 54.5 °F 51.8 °F 91% 30.09 in 10.0 mi Calm Calm - N/A   Scattered Clouds
1:55 AM 53.8 °F 50.7 °F 89% 30.09 in 10.0 mi Calm Calm - N/A   Scattered Clouds
2:15 AM 54.5 °F 51.3 °F 89% 30.09 in 10.0 mi Calm Calm - N/A   Scattered Clouds
2:35 AM 55.8 °F 50.9 °F 84% 30.09 in 10.0 mi Calm Calm - N/A   Scattered Clouds
2:55 AM 55.2 °F 50.5 °F 84% 30.08 in 10.0 mi Calm Calm - N/A   Scattered Clouds
3:15 AM 56.3 °F 50.4 °F 80% 30.08 in 10.0 mi Calm Calm - N/A   Scattered Clouds
3:35 AM 55.4 °F 50.9 °F 85% 30.08 in 10.0 mi Calm Calm - N/A   Scattered Clouds
3:55 AM 54.5 °F 51.1 °F 88% 30.08 in 10.0 mi Calm Calm - N/A   Scattered Clouds
4:15 AM 54.1 °F 51.1 °F 89% 30.08 in 10.0 mi Calm Calm - N/A   Scattered Clouds
4:35 AM 54.5 °F 51.1 °F 88% 30.08 in 10.0 mi Calm Calm - N/A   Scattered Clouds
4:55 AM 53.6 °F 50.5 °F 89% 30.08 in 10.0 mi Calm Calm - N/A   Scattered Clouds
5:15 AM 54.0 °F 50.5 °F 88% 30.09 in 10.0 mi Calm Calm - N/A   Scattered Clouds
5:35 AM 53.6 °F 50.9 °F 91% 30.09 in 10.0 mi Calm Calm - N/A   Scattered Clouds
5:55 AM 52.2 °F 49.8 °F 92% 30.09 in 10.0 mi Calm Calm - N/A   Scattered Clouds
6:15 AM 52.0 °F 49.8 °F 92% 30.10 in 10.0 mi Calm Calm - N/A   Scattered Clouds
6:35 AM 52.7 °F 49.8 °F 90% 30.10 in 10.0 mi Calm Calm - N/A   Scattered Clouds
6:55 AM 52.0 °F 49.5 °F 91% 30.10 in 10.0 mi Calm Calm - N/A   Scattered Clouds
7:15 AM 51.8 °F 49.5 °F 92% 30.11 in 10.0 mi Calm Calm - N/A   Scattered Clouds
7:35 AM 52.2 °F 50.0 °F 92% 30.11 in 10.0 mi Calm Calm - N/A   Scattered Clouds
7:55 AM 53.1 °F 50.9 °F 92% 30.11 in 10.0 mi Calm Calm - N/A   Scattered Clouds
8:15 AM 55.9 °F 52.2 °F 87% 30.12 in 10.0 mi Calm Calm - N/A   Scattered Clouds
8:35 AM 57.9 °F 52.3 °F 82% 30.12 in 10.0 mi NE 3.5 mph - N/A   Scattered Clouds
8:55 AM 60.1 °F 53.6 °F 79% 30.12 in 10.0 mi Calm Calm - N/A   Scattered Clouds
9:15 AM 62.6 °F 54.1 °F 74% 30.12 in 10.0 mi Calm Calm - N/A   Scattered Clouds
9:35 AM 64.8 °F 54.0 °F 68% 30.13 in 10.0 mi Calm Calm - N/A   Scattered Clouds
9:55 AM 65.3 °F 53.1 °F 65% 30.13 in 10.0 mi Calm Calm - N/A   Scattered Clouds
10:15 AM 66.6 °F 52.3 °F 60% 30.13 in 10.0 mi East 5.8 mph - N/A   Scattered Clouds
10:35 AM 66.9 °F 52.5 °F 60% 30.13 in 10.0 mi NNE 4.6 mph - N/A   Scattered Clouds
10:55 AM 68.0 °F 52.0 °F 56% 30.13 in 10.0 mi Calm Calm - N/A   Scattered Clouds
11:15 AM 69.4 °F 52.7 °F 55% 30.13 in 10.0 mi NNE 3.5 mph - N/A   Scattered Clouds
11:35 AM 69.3 °F 52.2 °F 54% 30.12 in 10.0 mi Calm Calm - N/A   Scattered Clouds
11:55 AM 69.6 °F 52.5 °F 54% 30.12 in 10.0 mi Calm Calm - N/A   Scattered Clouds
12:15 PM 71.1 °F 52.3 °F 52% 30.11 in 10.0 mi NNE 4.6 mph - N/A   Scattered Clouds
12:35 PM 71.4 °F 52.0 °F 50% 30.11 in 10.0 mi Calm Calm - N/A   Scattered Clouds
12:55 PM 72.1 °F 52.2 °F 49% 30.10 in 10.0 mi NNW 3.5 mph - N/A   Scattered Clouds
1:15 PM 72.9 °F 51.8 °F 47% 30.09 in 10.0 mi Calm Calm - N/A   Scattered Clouds
1:35 PM 72.9 °F 52.0 °F 48% 30.09 in 10.0 mi North 4.6 mph - N/A   Scattered Clouds
1:55 PM 72.7 °F 52.5 °F 49% 30.08 in 10.0 mi Calm Calm - N/A   Scattered Clouds
2:15 PM 73.6 °F 52.7 °F 48% 30.07 in 10.0 mi North 4.6 mph - N/A   Scattered Clouds
2:35 PM 74.3 °F 51.3 °F 44% 30.06 in 10.0 mi Calm Calm - N/A   Scattered Clouds
2:55 PM 74.8 °F 52.3 °F 45% 30.05 in 10.0 mi WNW 3.5 mph - N/A   Scattered Clouds
3:15 PM 76.1 °F 53.1 °F 45% 30.04 in 10.0 mi NNW 5.8 mph - N/A   Scattered Clouds
3:35 PM 75.4 °F 51.8 °F 44% 30.04 in 10.0 mi WNW 5.8 mph - N/A   Scattered Clouds
3:55 PM 75.6 °F 52.9 °F 45% 30.04 in 10.0 mi NNW 6.9 mph - N/A   Scattered Clouds
4:15 PM 75.6 °F 51.8 °F 43% 30.04 in 10.0 mi Calm Calm - N/A   Scattered Clouds
4:35 PM 75.6 °F 51.4 °F 43% 30.03 in 10.0 mi North 5.8 mph - N/A   Scattered Clouds
4:55 PM 75.7 °F 52.2 °F 44% 30.03 in 10.0 mi North 3.5 mph - N/A   Scattered Clouds
5:15 PM 75.4 °F 52.7 °F 45% 30.03 in 10.0 mi North 5.8 mph - N/A   Scattered Clouds
5:35 PM 75.2 °F 52.9 °F 46% 30.03 in 10.0 mi Calm Calm - N/A   Scattered Clouds
5:55 PM 74.5 °F 53.4 °F 48% 30.03 in 10.0 mi NNW 3.5 mph - N/A   Scattered Clouds
6:15 PM 73.6 °F 54.0 °F 50% 30.04 in 10.0 mi Calm Calm - N/A   Scattered Clouds
6:35 PM 72.1 °F 55.2 °F 55% 30.04 in 10.0 mi Calm Calm - N/A   Scattered Clouds
6:55 PM 70.0 °F 56.5 °F 62% 30.04 in 10.0 mi Calm Calm - N/A   Scattered Clouds
7:15 PM 67.3 °F 56.8 °F 69% 30.04 in 10.0 mi Calm Calm - N/A   Scattered Clouds
7:35 PM 66.4 °F 57.6 °F 73% 30.04 in 10.0 mi Calm Calm - N/A   Scattered Clouds
7:55 PM 63.5 °F 57.9 °F 82% 30.05 in 10.0 mi Calm Calm - N/A   Scattered Clouds
8:15 PM 63.7 °F 57.4 °F 80% 30.06 in 10.0 mi Calm Calm - N/A   Scattered Clouds
8:35 PM 63.7 °F 57.6 °F 80% 30.06 in 10.0 mi Calm Calm - N/A   Scattered Clouds
8:55 PM 62.1 °F 57.2 °F 84% 30.07 in 10.0 mi Calm Calm - N/A   Scattered Clouds
9:15 PM 61.7 °F 57.4 °F 86% 30.07 in 10.0 mi Calm Calm - N/A   Scattered Clouds
9:35 PM 60.8 °F 57.0 °F 87% 30.07 in 10.0 mi Calm Calm - N/A   Scattered Clouds
9:55 PM 60.8 °F 57.2 °F 88% 30.07 in 10.0 mi Calm Calm - N/A   Scattered Clouds
10:15 PM 60.1 °F 56.8 °F 89% 30.07 in 10.0 mi Calm Calm - N/A   Scattered Clouds
10:35 PM 59.0 °F 56.3 °F 91% 30.07 in 10.0 mi Calm Calm - N/A   Scattered Clouds
10:55 PM 58.3 °F 55.6 °F 91% 30.07 in 10.0 mi Calm Calm - N/A   Scattered Clouds
11:15 PM 58.3 °F 55.9 °F 92% 30.07 in 10.0 mi Calm Calm - N/A   Scattered Clouds
11:35 PM 57.2 °F 54.5 °F 91% 30.07 in 10.0 mi Calm Calm - N/A   Scattered Clouds
11:55 PM 56.7 °F 54.3 °F 92% 30.07 in 10.0 mi Calm Calm - N/A   Scattered Clouds